Biloxi, MS

6:47 PM CDT on July 24, 2017 (GMT -0500)
Keesler Air Force Base

Weather History for KBIX - January, 2013

Change the Weather History Date:

Tuesday, January 15, 2013

  Actual Average Record
Temperature  
Mean Temperature 52 °F -  
Max Temperature 59 °F 58 °F 74 °F (1971)
Min Temperature 44 °F 39 °F 24 °F (1978)
Degree Days  
Heating Degree Days 14    
Growing Degree Days 2 (Base 50)    
Moisture  
Dew Point 50 °F    
Average Humidity 98    
Maximum Humidity 100    
Minimum Humidity 93    
Precipitation  
Precipitation 0.02 in - - ()
Sea Level Pressure  
Sea Level Pressure 30.02 in    
Wind  
Wind Speed 8 mph (NNE)    
Max Wind Speed 13 mph    
Max Gust Speed -    
Visibility 3 miles    
Events Fog , Rain    
Averages and records for this station are not official NWS values.
T = Trace of Precipitation, MM = Missing Value Source: NWS Daily Summary

Daily Weather History Graph

Daily Weather History Graph

Search for Another Location

Airport or City:

Trip Planner

Search our weather history database for the weather conditions in past years. The results will help you decide how hot, cold, wet, or windy it might be!

Date:

Astronomy

Jan. 15, 2013 Rise Set
Actual Time 6:53 AM CST 5:17 PM CST
Civil Twilight 6:27 AM CST 5:43 PM CST
Nautical Twilight 5:57 AM CST 6:13 PM CST
Astronomical Twilight 5:28 AM CST 6:41 PM CST
Moon 9:20 AM CST (1/15) 9:43 PM CST (1/15)
Length of Visible Light 11h 16m
Length of Day
10h 24m
Waxing Crescent, 19% of the Moon is Illuminated
Jan 15
Waxing Crescent
Jan 18
First Quarter
Jan 26
Full
Feb 3
Last Quarter
Feb 10
New

Hourly Weather History & Observations

Time (CST) Temp. Windchill Dew Point Humidity Pressure Visibility Wind Dir Wind Speed Gust Speed Precip Events Conditions
12:15 AM 44.6 °F 39.7 °F 42.8 °F 93% 30.08 in 10.0 mi NE 9.2 mph - N/A   Overcast
12:55 AM 45.0 °F 40.6 °F 44.1 °F 97% 30.07 in 10.0 mi NE 8.1 mph - 0.00 in   Overcast
1:18 AM 44.6 °F 39.7 °F 44.6 °F 100% 30.07 in 10.0 mi NE 9.2 mph - N/A   Overcast
1:26 AM 44.6 °F 40.2 °F 44.6 °F 100% 30.07 in 10.0 mi NE 8.1 mph - N/A   Overcast
1:30 AM 44.6 °F 40.2 °F 44.6 °F 100% 30.07 in 10.0 mi NNE 8.1 mph - N/A   Overcast
1:44 AM 44.6 °F 40.2 °F 44.6 °F 100% 30.06 in 9.0 mi NE 8.1 mph - N/A   Overcast
1:48 AM 44.6 °F 38.4 °F 44.6 °F 100% 30.05 in 9.0 mi NE 12.7 mph - N/A   Overcast
1:55 AM 45.3 °F 39.7 °F 44.6 °F 97% 30.05 in 9.0 mi NE 11.5 mph - N/A   Overcast
1:56 AM 44.6 °F 39.2 °F 44.6 °F 100% 30.05 in 9.0 mi NE 10.4 mph - N/A   Overcast
2:10 AM 46.4 °F 41.5 °F 44.6 °F 93% 30.05 in 9.0 mi NE 10.4 mph - N/A   Overcast
2:16 AM 46.4 °F 42.4 °F 44.6 °F 93% 30.05 in 9.0 mi NE 8.1 mph - N/A   Overcast
2:19 AM 46.4 °F 42.4 °F 44.6 °F 93% 30.04 in 9.0 mi NE 8.1 mph - N/A   Overcast
2:47 AM 46.4 °F 43.5 °F 44.6 °F 93% 30.05 in 8.0 mi NNE 5.8 mph - N/A   Overcast
2:55 AM 46.2 °F 42.2 °F 45.3 °F 97% 30.06 in 7.0 mi NNE 8.1 mph - N/A   Overcast
3:00 AM 46.4 °F 42.4 °F 44.6 °F 93% 30.05 in 5.0 mi NNE 8.1 mph - N/A   Overcast
3:05 AM 46.4 °F 42.4 °F 44.6 °F 93% 30.05 in 4.0 mi NNE 8.1 mph - N/A   Overcast
3:14 AM 46.4 °F 42.4 °F 44.6 °F 93% 30.05 in 3.0 mi NNE 8.1 mph - N/A   Overcast
3:26 AM 46.4 °F 43.5 °F 44.6 °F 93% 30.05 in 3.0 mi NNE 5.8 mph - N/A Rain Light Rain
3:27 AM 46.4 °F 42.4 °F 44.6 °F 93% 30.05 in 3.0 mi NNE 8.1 mph - N/A Rain Light Rain
3:30 AM 46.4 °F 42.9 °F 44.6 °F 93% 30.05 in 4.0 mi NNE 6.9 mph - N/A Rain Light Rain
3:35 AM 46.4 °F 43.5 °F 44.6 °F 93% 30.05 in 5.0 mi NNE 5.8 mph - N/A Rain Light Rain
3:46 AM 46.4 °F 42.4 °F 46.4 °F 100% 30.04 in 5.0 mi NE 8.1 mph - N/A Rain Light Rain
3:55 AM 46.6 °F - 46.0 °F 98% 30.04 in 5.0 mi NNE 8.1 mph - 0.01 in Rain Light Rain
4:00 AM 46.4 °F 41.9 °F 46.4 °F 100% 30.04 in 6.0 mi NE 9.2 mph - N/A   Overcast
4:34 AM 46.4 °F 42.4 °F 46.4 °F 100% 30.04 in 4.0 mi NNE 8.1 mph - N/A   Overcast
4:43 AM 46.4 °F 42.4 °F 46.4 °F 100% 30.04 in 3.0 mi NNE 8.1 mph - N/A   Overcast
4:51 AM 46.4 °F 42.4 °F 46.4 °F 100% 30.04 in 2.5 mi NNE 8.1 mph - N/A   Overcast
4:52 AM 46.4 °F 42.4 °F 46.4 °F 100% 30.04 in 2.5 mi NNE 8.1 mph - N/A   Overcast
4:54 AM 46.4 °F 42.4 °F 46.4 °F 100% 30.04 in 2.5 mi NNE 8.1 mph - N/A   Overcast
4:55 AM 46.4 °F 42.4 °F 45.9 °F 98% 30.04 in 3.0 mi North 8.1 mph - 0.01 in   Overcast
5:18 AM 46.4 °F 41.9 °F 46.4 °F 100% 30.04 in 2.5 mi North 9.2 mph - N/A   Overcast
5:28 AM 46.4 °F 41.9 °F 46.4 °F 100% 30.03 in 3.0 mi NNE 9.2 mph - N/A   Overcast
5:48 AM 46.4 °F 41.5 °F 46.4 °F 100% 30.03 in 2.5 mi NE 10.4 mph - N/A   Overcast
5:51 AM 46.4 °F 42.4 °F 46.4 °F 100% 30.03 in 2.5 mi NNE 8.1 mph - N/A   Overcast
5:55 AM 46.4 °F 41.5 °F 45.9 °F 98% 30.04 in 2.5 mi NNE 10.4 mph - N/A   Overcast
6:18 AM 46.4 °F 42.4 °F 46.4 °F 100% 30.04 in 2.5 mi NE 8.1 mph - N/A   Overcast
6:20 AM 46.4 °F 41.9 °F 46.4 °F 100% 30.04 in 2.0 mi NNE 9.2 mph - N/A   Overcast
6:34 AM 46.4 °F 42.9 °F 46.4 °F 100% 30.04 in 2.5 mi NE 6.9 mph - N/A   Overcast
6:55 AM 47.1 °F - 46.6 °F 98% 30.05 in 2.5 mi NNE 9.2 mph - N/A   Overcast
7:01 AM 46.4 °F 41.9 °F 46.4 °F 100% 30.05 in 2.0 mi NNE 9.2 mph - N/A   Overcast
7:08 AM 46.4 °F 41.9 °F 46.4 °F 100% 30.05 in 2.0 mi NNE 9.2 mph - N/A   Overcast
7:10 AM 46.4 °F 41.9 °F 46.4 °F 100% 30.05 in 1.8 mi NNE 9.2 mph - N/A   Overcast
7:12 AM 46.4 °F 43.5 °F 46.4 °F 100% 30.05 in 2.0 mi NNE 5.8 mph - N/A   Overcast
7:14 AM 46.4 °F 42.4 °F 46.4 °F 100% 30.05 in 1.8 mi NNE 8.1 mph - N/A   Overcast
7:31 AM 48.2 °F - 46.4 °F 93% 30.05 in 1.8 mi NE 6.9 mph - N/A   Overcast
7:34 AM 48.2 °F - 46.4 °F 93% 30.05 in 2.0 mi NE 6.9 mph - N/A   Overcast
7:43 AM 48.2 °F - 46.4 °F 93% 30.05 in 1.8 mi NE 9.2 mph - N/A   Overcast
7:48 AM 48.2 °F - 46.4 °F 93% 30.05 in 1.5 mi NE 8.1 mph - N/A   Overcast
7:54 AM 48.2 °F - 46.4 °F 93% 30.05 in 1.2 mi NNE 9.2 mph - N/A   Overcast
7:55 AM 47.5 °F - 46.9 °F 98% 30.05 in 1.2 mi NNE 8.1 mph - N/A   Overcast
8:14 AM 48.2 °F - 46.4 °F 93% 30.05 in 0.8 mi NE 8.1 mph - N/A   Mist
8:20 AM 48.2 °F - 46.4 °F 93% 30.05 in 0.8 mi NNE 5.8 mph - N/A   Mist
8:30 AM 48.2 °F - 48.2 °F 100% 30.05 in 0.8 mi NE 6.9 mph - N/A   Mist
8:36 AM 48.2 °F - 48.2 °F 100% 30.05 in 0.8 mi NE 6.9 mph - N/A   Mist
8:48 AM 48.2 °F - 48.2 °F 100% 30.06 in 0.8 mi NNE 6.9 mph - N/A   Mist
8:51 AM 48.2 °F - 48.2 °F 100% 30.06 in 0.8 mi NNE 6.9 mph - N/A   Mist
8:55 AM 48.4 °F - 48.0 °F 99% 30.06 in 0.8 mi NE 5.8 mph - N/A   Mist
8:57 AM 48.2 °F - 48.2 °F 100% 30.06 in 1.0 mi NE 5.8 mph - N/A   Mist
9:01 AM 48.2 °F - 48.2 °F 100% 30.06 in 1.0 mi NE 6.9 mph - N/A   Mist
9:10 AM 48.2 °F - 48.2 °F 100% 30.06 in 1.0 mi NE 5.8 mph - N/A   Mist
9:36 AM 50.0 °F - 50.0 °F 100% 30.05 in 1.0 mi NE 5.8 mph - N/A   Mist
9:44 AM 50.0 °F - 50.0 °F 100% 30.05 in 0.8 mi NNE 5.8 mph - N/A   Mist
9:49 AM 50.0 °F - 50.0 °F 100% 30.05 in 0.8 mi NE 5.8 mph - N/A   Mist
9:52 AM 50.0 °F - 50.0 °F 100% 30.05 in 0.5 mi North 5.8 mph - N/A Fog Fog
9:53 AM 50.0 °F - 50.0 °F 100% 30.05 in 0.5 mi NNE 5.8 mph - N/A Fog Fog
9:55 AM 49.8 °F - 49.6 °F 99% 30.05 in 0.5 mi NNE 5.8 mph - N/A Fog Fog
9:57 AM 50.0 °F - 50.0 °F 100% 30.05 in 0.5 mi NNE 6.9 mph - N/A Fog Fog
9:58 AM 50.0 °F - 50.0 °F 100% 30.05 in 0.5 mi NNE 5.8 mph - N/A Fog Fog
10:00 AM 50.0 °F - 50.0 °F 100% 30.05 in 0.5 mi NNE 4.6 mph - N/A Fog Fog
10:09 AM 50.0 °F - 50.0 °F 100% 30.05 in 0.5 mi NNE 4.6 mph - N/A Fog Fog
10:55 AM 51.4 °F - 51.3 °F 99% 30.04 in 0.5 mi NNW 4.6 mph - N/A Fog Fog
11:04 AM 51.8 °F - 51.8 °F 100% 30.04 in 0.5 mi North 5.8 mph - N/A Fog Fog
11:06 AM 51.8 °F - 51.8 °F 100% 30.04 in 0.2 mi North 4.6 mph - N/A Fog Fog
11:52 AM 53.6 °F - 53.6 °F 100% 30.01 in 0.5 mi ENE 3.5 mph - N/A Fog Fog
11:55 AM 54.0 °F - 53.8 °F 99% 30.00 in 0.5 mi East 3.5 mph - N/A Fog Fog
11:58 AM 53.6 °F - 53.6 °F 100% 30.01 in 1.0 mi ENE 3.5 mph - N/A   Overcast
12:55 PM 56.3 °F - 56.1 °F 99% 29.99 in 1.0 mi North 5.8 mph - N/A   Overcast
1:06 PM 55.4 °F - 55.4 °F 100% 29.98 in 0.8 mi North 5.8 mph - N/A   Mist
1:11 PM 57.2 °F - 55.4 °F 94% 29.98 in 0.5 mi North 4.6 mph - N/A Fog Fog
1:15 PM 57.2 °F - 55.4 °F 94% 29.98 in 0.5 mi North 3.5 mph - N/A Fog Fog
1:20 PM 57.2 °F - 57.2 °F 100% 29.98 in 0.5 mi North 4.6 mph - N/A Fog Fog
1:36 PM 57.2 °F - 57.2 °F 100% 29.98 in 0.5 mi North 5.8 mph - N/A Fog Fog
1:55 PM 57.2 °F - 57.2 °F 100% 29.98 in 1.0 mi North 5.8 mph - N/A   Mist
2:42 PM 57.2 °F - 57.2 °F 100% 29.97 in 0.5 mi North 4.6 mph - N/A Fog Fog
2:58 PM 57.2 °F - 57.2 °F 100% 29.96 in 0.5 mi North 4.6 mph - N/A Fog Fog
3:58 PM 59.0 °F - 57.2 °F 94% 29.96 in 0.5 mi NE 4.6 mph - N/A Fog Fog
4:03 PM 59.0 °F - 57.2 °F 94% 29.97 in 0.8 mi NNE 4.6 mph - N/A   Overcast
4:55 PM 59.0 °F - 59.0 °F 100% 29.95 in 0.5 mi ENE 5.8 mph - N/A Fog Fog
5:55 PM 57.7 °F - 57.6 °F 99% 29.96 in 0.8 mi NNE 4.6 mph - N/A   Mist
6:01 PM 57.2 °F - 57.2 °F 100% 29.96 in 0.8 mi NNE 5.8 mph - N/A   Mist
6:04 PM 57.2 °F - 57.2 °F 100% 29.96 in 0.8 mi NNE 5.8 mph - N/A   Mist
6:05 PM 57.2 °F - 57.2 °F 100% 29.96 in 0.8 mi NNE 5.8 mph - N/A Rain Light Rain
6:09 PM 57.2 °F - 57.2 °F 100% 29.96 in 1.0 mi NNE 4.6 mph - N/A Rain Light Rain
6:28 PM 57.2 °F - 57.2 °F 100% 29.96 in 1.2 mi North 5.8 mph - N/A   Overcast
6:58 PM 57.2 °F - 57.2 °F 100% 29.96 in 4.0 mi NNE 5.8 mph - N/A   Overcast
7:19 PM 57.2 °F - 57.2 °F 100% 29.96 in 5.0 mi NNE 5.8 mph - N/A   Overcast
7:29 PM 57.2 °F - 57.2 °F 100% 29.96 in 7.0 mi North 8.1 mph - N/A   Overcast
7:34 PM 57.2 °F - 57.2 °F 100% 29.96 in 2.0 mi North 6.9 mph - N/A   Overcast
7:58 PM 57.2 °F - 55.4 °F 94% 29.96 in 2.0 mi North 9.2 mph - N/A   Overcast
8:56 PM 55.4 °F - 55.4 °F 100% 29.96 in 1.0 mi North 5.8 mph - N/A   Overcast
9:55 PM 55.4 °F - 55.4 °F 100% 29.96 in 0.5 mi North 5.8 mph - N/A Fog Fog
10:32 PM 53.6 °F - 53.6 °F 100% 29.96 in 1.8 mi North 5.8 mph - N/A   Overcast
10:42 PM 53.6 °F - 53.6 °F 100% 29.96 in 1.5 mi North 6.9 mph - N/A   Overcast
10:47 PM 53.6 °F - 53.6 °F 100% 29.96 in 1.2 mi North 8.1 mph - N/A   Overcast
10:55 PM 54.3 °F - 54.0 °F 99% 29.96 in 1.2 mi North 9.2 mph - N/A   Overcast
11:14 PM 53.6 °F - 53.6 °F 100% 29.96 in 1.2 mi North 5.8 mph - N/A   Overcast
11:16 PM 53.6 °F - 53.6 °F 100% 29.96 in 1.5 mi North 6.9 mph - N/A   Overcast
11:21 PM 53.6 °F - 53.6 °F 100% 29.96 in 1.8 mi North 5.8 mph - N/A   Overcast
11:27 PM 53.6 °F - 53.6 °F 100% 29.97 in 2.0 mi North 10.4 mph - N/A   Overcast
11:30 PM 53.6 °F - 53.6 °F 100% 29.96 in 2.5 mi North 9.2 mph - N/A   Overcast
11:31 PM 53.6 °F - 53.6 °F 100% 29.96 in 2.5 mi North 10.4 mph - N/A   Overcast
11:33 PM 53.6 °F - 53.6 °F 100% 29.96 in 3.0 mi North 9.2 mph - N/A   Overcast
11:40 PM 53.6 °F - 53.6 °F 100% 29.96 in 2.5 mi North 8.1 mph - N/A   Overcast
11:41 PM 53.6 °F - 53.6 °F 100% 29.96 in 2.5 mi North 8.1 mph - N/A   Overcast
11:43 PM 53.6 °F - 53.6 °F 100% 29.96 in 2.5 mi North 6.9 mph - N/A   Overcast
11:44 PM 53.6 °F - 53.6 °F 100% 29.96 in 2.5 mi North 6.9 mph - N/A   Overcast
11:51 PM 53.6 °F - 53.6 °F 100% 29.96 in 2.5 mi North 8.1 mph - N/A   Overcast
11:55 PM 52.9 °F - 52.7 °F 99% 29.96 in 3.0 mi North 8.1 mph - N/A   Overcast